Погода в Юкталях

Россия / Амурская область     56°35′48″N   121°38′50″E
темп.,
°C
ветер,
м/с
пор.,
м/с
влажн.,
%
обл.,
%
осадки,
мм/ч
давл.,
гПа
погр.,
м
18 мая, вт
вт1800:00−2с3688100 0.7 1006635
03:00−2с1364100 0.9 1005276
06:00−1с2556100 0.1 10051129
09:000с4538100 0.1 10051967
12:00+2сз2338100 0.1 10062304
15:00+2сз2337100 0.4 10062217
18:00+3ссв122884 0.0 10052255
21:00−2в225195 0.0 100616
19 мая, ср
ср1900:00−4вюв217023 0.0 100613
03:00−5ююв1173100 0.0 100613
06:00−3юв12656 0.0 1005130
09:00+3ю354896 0.0 10031125
12:00+6ю4636100 0.2 10002447
15:00+7ююз3541100 0.6 9981970
18:00+7ю3447100 0.5 9981511
21:00+2ю1183100 1.1 100020
20 мая, чт
чт2000:000ссз2499100 4.6 1003197
03:00−4сз119999 5.8 100412
06:00−2сз1295100 0.0 1006122
09:000ссз1291100 1.3 1007409
12:00+3ссз2554100 1.4 10081876
15:00+5сз3543100 1.4 10082206
18:00+5сз36425 0.0 10102107
21:00−3сз21823 0.0 101410
21 мая, пт
пт2100:00−6с11904 0.0 101710
03:00−7ююз009095 0.0 101810
06:00−3вюв1174100 0.0 101753
09:00+4юв1153100 0.0 1016449
12:00+6ю2343100 0.0 10141322
15:00+7ююв2439100 0.0 10121533
18:00+7ююв3443100 0.0 10111511
21:00+2вюв1166100 0.0 101110
22 мая, сб
сб2200:000ссв1196100 1.0 101315
03:000св11100100 2.9 1011101
06:00+1ссв12100100 1.3 100882
09:00+1юз10100100 4.4 100667
12:00+2ссв12100100 1.4 1005152
15:00+2с12100100 1.9 1003207
18:00+2ссз22100100 0.2 1003242
21:00+1с23100100 1.9 1003214